User: anonymous   Login
Location: Fours
(44.3167°N, 6.7000°E)
Time: 16:50:24
(UTC+00:00)
Language:

Cosmos 1939 Rocket - Orbit

View from above orbital plane
View from above orbital plane
View from above satellite
View from above satellite

Ground track
Ground track

The orbit data is extracted from the following two-line orbital elements,

1 19046U 88032B   21062.87701135 -.00000315  00000-0 -18778-4 0  9990
2 19046  97.3915  78.2492 0038740  44.2456 316.1856 15.02863159775925
Epoch (UTC): 03 March 2021 21:02:53
Eccentricity: 0.0038740
inclination: 97.3915°
perigee height: 531 km
apogee height: 585 km
right ascension of ascending node: 78.2492°
argument of perigee: 44.2456°
revolutions per day: 15.02863159
mean anomaly at epoch: 316.1856°
orbit number at epoch: 77592

The dashed part of the orbit path shows where the satellite is in the earth's shadow,  

DLR